Time,TemperatureF,DewpointF,PressureIn,WindDirection,WindDirectionDegrees,WindSpeedMPH,WindSpeedGustMPH,Humidity,HourlyPrecipIn,Conditions,Clouds,dailyrainin,SoftwareType,DateUTC
2013-08-04 00:04:00,76.9,71.0,30.08,East,93,3.5,3.5,82,0.00,CLR,,0.00,WeatherDisplay:10.37,2013-08-03 22:04:00,
2013-08-04 00:09:00,76.9,71.0,30.08,East,88,3.5,3.5,82,0.00,CLR,,0.00,WeatherDisplay:10.37,2013-08-03 22:09:00,
2013-08-04 00:14:00,76.9,71.0,30.08,East,89,3.5,3.5,82,0.00,CLR,,0.00,WeatherDisplay:10.37,2013-08-03 22:14:00,
2013-08-04 00:19:00,76.9,71.0,30.07,East,89,5.8,5.8,82,0.00,CLR,,0.00,WeatherDisplay:10.37,2013-08-03 22:19:00,
2013-08-04 00:24:00,76.9,71.0,30.07,ENE,67,5.8,5.8,82,0.00,CLR,,0.00,WeatherDisplay:10.37,2013-08-03 22:24:00,
2013-08-04 00:29:00,76.8,70.9,30.07,ENE,61,4.6,4.6,82,0.00,CLR,,0.00,WeatherDisplay:10.37,2013-08-03 22:29:00,
2013-08-04 00:34:00,76.6,70.7,30.08,NNE,25,3.5,3.5,82,0.00,CLR,,0.00,WeatherDisplay:10.37,2013-08-03 22:34:00,
2013-08-04 00:39:00,76.4,70.9,30.08,North,4,3.5,3.5,83,0.00,CLR,,0.00,WeatherDisplay:10.37,2013-08-03 22:39:00,
2013-08-04 00:44:00,76.6,71.0,30.07,ENE,64,4.0,4.0,83,0.00,CLR,,0.00,WeatherDisplay:10.37,2013-08-03 22:44:00,
2013-08-04 00:49:00,76.7,71.1,30.07,ENE,57,5.0,5.0,83,0.00,CLR,,0.00,WeatherDisplay:10.37,2013-08-03 22:49:00,
2013-08-04 00:54:00,76.8,71.2,30.07,NE,45,3.5,3.5,83,0.00,CLR,,0.00,WeatherDisplay:10.37,2013-08-03 22:54:00,
2013-08-04 00:59:00,76.8,70.9,30.07,ENE,59,3.5,3.5,82,0.00,CLR,,0.00,WeatherDisplay:10.37,2013-08-03 22:59:00,
2013-08-04 01:04:00,76.8,70.9,30.07,NNE,26,3.5,3.5,82,0.00,CLR,,0.00,WeatherDisplay:10.37,2013-08-03 23:04:00,
2013-08-04 01:09:00,76.6,71.0,30.07,ENE,68,5.0,5.0,83,0.00,CLR,,0.00,WeatherDisplay:10.37,2013-08-03 23:09:00,
2013-08-04 01:14:00,76.6,70.7,30.07,ENE,58,4.6,4.6,82,0.00,CLR,,0.00,WeatherDisplay:10.37,2013-08-03 23:14:00,
2013-08-04 01:19:00,76.7,70.8,30.07,ENE,58,7.0,7.0,82,0.00,CLR,,0.00,WeatherDisplay:10.37,2013-08-03 23:19:00,
2013-08-04 01:24:00,76.7,70.8,30.06,ENE,67,8.1,8.1,82,0.00,CLR,,0.00,WeatherDisplay:10.37,2013-08-03 23:24:00,
2013-08-04 01:29:00,76.7,70.8,30.07,ENE,75,5.0,5.0,82,0.00,CLR,,0.00,WeatherDisplay:10.37,2013-08-03 23:29:00,
2013-08-04 01:34:00,76.7,70.8,30.07,East,83,4.6,4.6,82,0.00,CLR,,0.00,WeatherDisplay:10.37,2013-08-03 23:34:00,
2013-08-04 01:39:00,76.7,70.4,30.07,ENE,78,4.6,4.6,81,0.00,CLR,,0.00,WeatherDisplay:10.37,2013-08-03 23:39:00,
2013-08-04 01:44:00,76.7,70.4,30.07,East,79,3.5,3.5,81,0.00,CLR,,0.00,WeatherDisplay:10.37,2013-08-03 23:44:00,
2013-08-04 01:49:00,76.8,70.5,30.06,ENE,69,7.0,7.0,81,0.00,CLR,,0.00,WeatherDisplay:10.37,2013-08-03 23:49:00,
2013-08-04 01:54:00,76.7,70.8,30.06,East,89,7.0,7.0,82,0.00,CLR,,0.00,WeatherDisplay:10.37,2013-08-03 23:54:00,
2013-08-04 01:59:00,76.6,70.3,30.06,East,100,5.8,5.8,81,0.00,CLR,,0.00,WeatherDisplay:10.37,2013-08-03 23:59:00,
2013-08-04 02:04:00,76.7,70.4,30.06,East,100,6.9,6.9,81,0.00,CLR,,0.00,WeatherDisplay:10.37,2013-08-04 00:04:00,
2013-08-04 02:09:00,76.7,70.4,30.06,East,79,4.6,4.6,81,0.00,CLR,,0.00,WeatherDisplay:10.37,2013-08-04 00:09:00,
2013-08-04 02:14:00,76.7,70.4,30.06,East,85,5.0,5.0,81,0.00,CLR,,0.00,WeatherDisplay:10.37,2013-08-04 00:14:00,
2013-08-04 02:19:00,76.6,70.3,30.06,East,88,5.0,5.0,81,0.00,CLR,,0.00,WeatherDisplay:10.37,2013-08-04 00:19:00,
2013-08-04 02:24:00,76.6,70.3,30.06,East,91,3.5,3.5,81,0.00,CLR,,0.00,WeatherDisplay:10.37,2013-08-04 00:24:00,
2013-08-04 02:29:00,76.6,70.0,30.06,East,80,4.6,4.6,80,0.00,CLR,,0.00,WeatherDisplay:10.37,2013-08-04 00:29:00,
2013-08-04 02:34:00,76.6,70.0,30.06,East,79,2.3,2.3,80,0.00,CLR,,0.00,WeatherDisplay:10.37,2013-08-04 00:34:00,
2013-08-04 02:39:00,76.7,70.1,30.06,East,79,2.3,2.3,80,0.00,CLR,,0.00,WeatherDisplay:10.37,2013-08-04 00:39:00,
2013-08-04 02:44:00,76.7,69.7,30.06,East,79,2.3,2.3,79,0.00,CLR,,0.00,WeatherDisplay:10.37,2013-08-04 00:44:00,
2013-08-04 02:49:00,76.8,69.8,30.06,East,80,2.3,2.3,79,0.00,CLR,,0.00,WeatherDisplay:10.37,2013-08-04 00:49:00,
2013-08-04 02:54:00,76.8,69.4,30.05,East,80,5.0,5.0,78,0.00,CLR,,0.00,WeatherDisplay:10.37,2013-08-04 00:54:00,
2013-08-04 02:59:00,76.8,69.4,30.05,ENE,62,4.6,4.6,78,0.00,CLR,,0.00,WeatherDisplay:10.37,2013-08-04 00:59:00,
2013-08-04 03:04:00,76.7,69.3,30.05,ENE,69,3.5,3.5,78,0.00,CLR,,0.00,WeatherDisplay:10.37,2013-08-04 01:04:00,
2013-08-04 03:09:00,76.8,69.0,30.05,ENE,76,4.0,4.0,77,0.00,CLR,,0.00,WeatherDisplay:10.37,2013-08-04 01:09:00,
2013-08-04 03:14:00,76.8,69.0,30.05,East,81,5.0,5.0,77,0.00,CLR,,0.00,WeatherDisplay:10.37,2013-08-04 01:14:00,
2013-08-04 03:19:00,76.8,69.0,30.05,ENE,74,4.6,4.6,77,0.00,CLR,,0.00,WeatherDisplay:10.37,2013-08-04 01:19:00,
2013-08-04 03:24:00,76.9,68.8,30.05,ENE,77,4.6,4.6,76,0.00,CLR,,0.00,WeatherDisplay:10.37,2013-08-04 01:24:00,
2013-08-04 03:29:00,76.9,68.8,30.05,East,79,6.9,6.9,76,0.00,CLR,,0.00,WeatherDisplay:10.37,2013-08-04 01:29:00,
2013-08-04 03:34:00,76.8,68.7,30.05,ENE,70,6.9,6.9,76,0.00,CLR,,0.00,WeatherDisplay:10.37,2013-08-04 01:34:00,
2013-08-04 03:39:00,76.7,68.2,30.05,East,86,6.0,6.0,75,0.00,CLR,,0.00,WeatherDisplay:10.37,2013-08-04 01:39:00,
2013-08-04 03:44:00,76.7,68.2,30.05,East,91,8.1,8.1,75,0.00,CLR,,0.00,WeatherDisplay:10.37,2013-08-04 01:44:00,
2013-08-04 03:49:00,76.7,68.2,30.05,East,87,8.1,8.1,75,0.00,CLR,,0.00,WeatherDisplay:10.37,2013-08-04 01:49:00,
2013-08-04 03:54:00,76.8,68.3,30.05,East,80,8.1,8.1,75,0.00,CLR,,0.00,WeatherDisplay:10.37,2013-08-04 01:54:00,
2013-08-04 03:59:00,76.8,68.3,30.05,East,81,6.9,6.9,75,0.00,CLR,,0.00,WeatherDisplay:10.37,2013-08-04 01:59:00,
2013-08-04 04:04:00,76.7,68.2,30.05,East,79,9.2,9.2,75,0.00,CLR,,0.00,WeatherDisplay:10.37,2013-08-04 02:04:00,
2013-08-04 04:09:00,76.7,68.2,30.05,East,83,8.1,8.1,75,0.00,CLR,,0.00,WeatherDisplay:10.37,2013-08-04 02:09:00,
2013-08-04 04:14:00,76.6,68.5,30.04,ENE,77,9.2,9.2,76,0.00,CLR,,0.00,WeatherDisplay:10.37,2013-08-04 02:14:00,
2013-08-04 04:19:00,76.4,68.3,30.04,ENE,77,9.2,9.2,76,0.00,CLR,,0.00,WeatherDisplay:10.37,2013-08-04 02:19:00,
2013-08-04 04:24:00,76.3,68.6,30.04,ENE,72,9.2,9.2,77,0.00,CLR,,0.00,WeatherDisplay:10.37,2013-08-04 02:24:00,
2013-08-04 04:29:00,76.2,68.8,30.04,NE,55,10.4,10.4,78,0.00,CLR,,0.00,WeatherDisplay:10.37,2013-08-04 02:29:00,
2013-08-04 04:34:00,76.3,68.9,30.04,ENE,62,10.4,10.4,78,0.00,CLR,,0.00,WeatherDisplay:10.37,2013-08-04 02:34:00,
2013-08-04 04:39:00,76.1,69.1,30.04,NE,46,9.2,9.2,79,0.00,CLR,,0.00,WeatherDisplay:10.37,2013-08-04 02:39:00,
2013-08-04 04:44:00,75.9,68.9,30.04,ENE,70,10.4,10.4,79,0.00,CLR,,0.00,WeatherDisplay:10.37,2013-08-04 02:44:00,
2013-08-04 04:49:00,75.8,69.2,30.04,ENE,66,10.4,10.4,80,0.00,CLR,,0.00,WeatherDisplay:10.37,2013-08-04 02:49:00,
2013-08-04 04:54:00,75.6,69.4,30.04,ENE,62,10.4,10.4,81,0.00,CLR,,0.00,WeatherDisplay:10.37,2013-08-04 02:54:00,
2013-08-04 04:59:00,75.4,69.5,30.04,NE,47,9.2,9.2,82,0.00,CLR,,0.00,WeatherDisplay:10.37,2013-08-04 02:59:00,
2013-08-04 05:04:00,75.4,69.5,30.04,ENE,62,11.0,11.0,82,0.00,CLR,,0.00,WeatherDisplay:10.37,2013-08-04 03:04:00,
2013-08-04 05:09:00,75.5,69.6,30.04,NE,47,10.4,10.4,82,0.00,CLR,,0.00,WeatherDisplay:10.37,2013-08-04 03:09:00,
2013-08-04 05:14:00,75.6,69.7,30.04,NE,56,9.2,9.2,82,0.00,CLR,,0.00,WeatherDisplay:10.37,2013-08-04 03:14:00,
2013-08-04 05:19:00,75.7,69.8,30.04,ENE,60,9.2,9.2,82,0.00,CLR,,0.00,WeatherDisplay:10.37,2013-08-04 03:19:00,
2013-08-04 05:24:00,75.7,69.5,30.04,NE,46,10.4,10.4,81,0.00,CLR,,0.00,WeatherDisplay:10.37,2013-08-04 03:24:00,
2013-08-04 05:29:00,75.7,69.5,30.04,NE,55,9.2,9.2,81,0.00,CLR,,0.00,WeatherDisplay:10.37,2013-08-04 03:29:00,
2013-08-04 05:34:00,75.8,69.6,30.04,ENE,74,9.2,9.2,81,0.00,CLR,,0.00,WeatherDisplay:10.37,2013-08-04 03:34:00,
2013-08-04 05:39:00,75.9,69.6,30.04,NE,40,8.1,8.1,81,0.00,CLR,,0.00,WeatherDisplay:10.37,2013-08-04 03:39:00,
2013-08-04 05:44:00,75.9,69.6,30.04,ENE,68,11.0,11.0,81,0.00,CLR,,0.00,WeatherDisplay:10.37,2013-08-04 03:44:00,
2013-08-04 05:49:00,75.8,69.9,30.04,ENE,71,10.4,10.4,82,0.00,CLR,,0.00,WeatherDisplay:10.37,2013-08-04 03:49:00,
2013-08-04 05:54:00,75.5,70.0,30.04,NE,39,8.0,8.0,83,0.00,CLR,,0.00,WeatherDisplay:10.37,2013-08-04 03:54:00,
2013-08-04 05:59:00,75.5,70.3,30.04,NE,56,11.5,11.5,84,0.00,CLR,,0.00,WeatherDisplay:10.37,2013-08-04 03:59:00,
2013-08-04 06:01:00,75.5,70.0,30.04,ENE,76,11.5,11.5,83,0.00,CLR,,0.00,WeatherDisplay:10.37,2013-08-04 04:01:00,
2013-08-04 06:06:00,75.5,70.3,30.04,ENE,57,9.2,9.2,84,0.00,CLR,,0.00,WeatherDisplay:10.37,2013-08-04 04:06:00,
2013-08-04 06:11:00,75.4,70.2,30.05,NE,39,9.2,9.2,84,0.00,CLR,,0.00,WeatherDisplay:10.37,2013-08-04 04:11:00,
2013-08-04 06:16:00,75.3,70.5,30.05,NE,55,9.2,9.2,85,0.00,CLR,,0.00,WeatherDisplay:10.37,2013-08-04 04:16:00,
2013-08-04 06:21:00,75.3,70.5,30.05,NE,54,9.2,9.2,85,0.00,CLR,,0.00,WeatherDisplay:10.37,2013-08-04 04:21:00,
2013-08-04 06:26:00,75.3,70.5,30.05,ENE,66,11.5,11.5,85,0.00,CLR,,0.00,WeatherDisplay:10.37,2013-08-04 04:26:00,
2013-08-04 06:32:00,75.2,70.7,30.05,NE,48,11.5,11.5,86,0.00,CLR,,0.00,WeatherDisplay:10.37,2013-08-04 04:32:00,
2013-08-04 06:37:00,75.2,70.7,30.05,NE,41,10.0,10.0,86,0.00,CLR,,0.00,WeatherDisplay:10.37,2013-08-04 04:37:00,
2013-08-04 06:42:00,75.1,70.6,30.05,ENE,62,11.5,11.5,86,0.00,CLR,,0.00,WeatherDisplay:10.37,2013-08-04 04:42:00,
2013-08-04 06:46:00,75.0,70.5,30.06,ENE,73,9.2,9.2,86,0.00,CLR,,0.00,WeatherDisplay:10.37,2013-08-04 04:46:00,
2013-08-04 06:51:00,75.0,70.5,30.05,NNE,21,10.4,10.4,86,0.00,CLR,,0.00,WeatherDisplay:10.37,2013-08-04 04:51:00,
2013-08-04 06:56:00,74.9,70.4,30.06,NNE,25,11.5,11.5,86,0.00,CLR,,0.00,WeatherDisplay:10.37,2013-08-04 04:56:00,
2013-08-04 07:02:00,74.9,70.4,30.06,ENE,58,10.4,10.4,86,0.00,FEW,,0.00,WeatherDisplay:10.37,2013-08-04 05:02:00,
2013-08-04 07:07:00,75.0,70.9,30.06,NE,36,11.5,11.5,87,0.00,FEW,,0.00,WeatherDisplay:10.37,2013-08-04 05:07:00,
2013-08-04 07:12:00,75.0,70.9,30.06,NE,54,10.4,10.4,87,0.00,FEW,,0.00,WeatherDisplay:10.37,2013-08-04 05:12:00,
2013-08-04 07:17:00,75.0,70.9,30.06,NE,40,10.4,10.4,87,0.00,FEW,,0.00,WeatherDisplay:10.37,2013-08-04 05:17:00,
2013-08-04 07:22:00,75.0,70.9,30.06,NE,35,12.0,12.0,87,0.00,FEW,,0.00,WeatherDisplay:10.37,2013-08-04 05:22:00,
2013-08-04 07:27:00,74.9,70.8,30.06,NE,55,11.5,11.5,87,0.00,FEW,,0.00,WeatherDisplay:10.37,2013-08-04 05:27:00,
2013-08-04 07:32:00,75.0,70.9,30.06,ENE,57,11.5,11.5,87,0.00,FEW,,0.00,WeatherDisplay:10.37,2013-08-04 05:32:00,
2013-08-04 07:37:00,75.0,71.2,30.06,NE,43,8.1,8.1,88,0.00,FEW,,0.00,WeatherDisplay:10.37,2013-08-04 05:37:00,
2013-08-04 07:42:00,75.2,71.4,30.06,NE,46,9.2,9.2,88,0.00,FEW,,0.00,WeatherDisplay:10.37,2013-08-04 05:42:00,
2013-08-04 07:47:00,75.3,71.2,30.06,NE,56,12.7,12.7,87,0.00,FEW,,0.00,WeatherDisplay:10.37,2013-08-04 05:47:00,
2013-08-04 07:52:00,75.4,71.3,30.06,NE,50,13.0,13.0,87,0.00,FEW,,0.00,WeatherDisplay:10.37,2013-08-04 05:52:00,
2013-08-04 07:57:00,75.6,71.5,30.06,ENE,66,13.0,13.0,87,0.00,FEW,,0.00,WeatherDisplay:10.37,2013-08-04 05:57:00,
2013-08-04 08:02:00,75.8,71.7,30.06,NE,48,12.7,12.7,87,0.00,FEW,,0.00,WeatherDisplay:10.37,2013-08-04 06:02:00,
2013-08-04 08:07:00,75.8,71.7,30.07,ENE,60,11.5,11.5,87,0.00,FEW,,0.00,WeatherDisplay:10.37,2013-08-04 06:07:00,
2013-08-04 08:12:00,76.0,71.8,30.07,ENE,64,12.0,12.0,87,0.00,FEW,,0.00,WeatherDisplay:10.37,2013-08-04 06:12:00,
2013-08-04 08:17:00,76.2,71.7,30.07,ENE,58,11.5,11.5,86,0.00,FEW,,0.00,WeatherDisplay:10.37,2013-08-04 06:17:00,
2013-08-04 08:22:00,76.5,71.7,30.07,ENE,60,12.0,12.0,85,0.00,FEW,,0.00,WeatherDisplay:10.37,2013-08-04 06:22:00,
2013-08-04 08:27:00,76.7,71.8,30.07,ENE,70,11.5,11.5,85,0.00,FEW,,0.00,WeatherDisplay:10.37,2013-08-04 06:27:00,
2013-08-04 08:32:00,76.8,71.6,30.07,NE,56,10.4,10.4,84,0.00,FEW,,0.00,WeatherDisplay:10.37,2013-08-04 06:32:00,
2013-08-04 08:37:00,76.7,71.5,30.07,ENE,58,11.5,11.5,84,0.00,FEW,,0.00,WeatherDisplay:10.37,2013-08-04 06:37:00,
2013-08-04 08:42:00,77.0,71.8,30.07,NE,54,11.5,11.5,84,0.00,FEW,,0.00,WeatherDisplay:10.37,2013-08-04 06:42:00,
2013-08-04 08:47:00,77.3,71.7,30.07,East,91,13.8,13.8,83,0.00,FEW,,0.00,WeatherDisplay:10.37,2013-08-04 06:47:00,
2013-08-04 08:52:00,77.8,71.9,30.08,ENE,62,15.0,15.0,82,0.00,FEW,,0.00,WeatherDisplay:10.37,2013-08-04 06:52:00,
2013-08-04 08:57:00,78.0,72.1,30.08,ENE,77,8.1,8.1,82,0.00,FEW,,0.00,WeatherDisplay:10.37,2013-08-04 06:57:00,
2013-08-04 09:02:00,78.2,71.2,30.07,ENE,71,11.5,11.5,79,0.00,FEW,,0.00,WeatherDisplay:10.37,2013-08-04 07:02:00,
2013-08-04 09:07:00,78.6,70.8,30.08,ENE,66,13.0,13.0,77,0.00,FEW,,0.00,WeatherDisplay:10.37,2013-08-04 07:07:00,
2013-08-04 09:12:00,79.0,70.0,30.08,East,81,11.5,11.5,74,0.00,FEW,,0.00,WeatherDisplay:10.37,2013-08-04 07:12:00,
2013-08-04 09:17:00,79.5,69.7,30.08,East,97,12.7,12.7,72,0.00,FEW,,0.00,WeatherDisplay:10.37,2013-08-04 07:17:00,
2013-08-04 09:22:00,78.6,69.6,30.08,NE,37,11.5,11.5,74,0.00,FEW,,0.00,WeatherDisplay:10.37,2013-08-04 07:22:00,
2013-08-04 09:27:00,78.4,69.8,30.08,NNE,23,11.5,11.5,75,0.00,FEW,,0.00,WeatherDisplay:10.37,2013-08-04 07:27:00,
2013-08-04 09:32:00,79.0,70.4,30.08,NE,52,12.7,12.7,75,0.00,FEW,,0.00,WeatherDisplay:10.37,2013-08-04 07:32:00,
2013-08-04 09:37:00,79.4,70.0,30.08,NNE,21,11.5,11.5,73,0.00,FEW,,0.00,WeatherDisplay:10.37,2013-08-04 07:37:00,
2013-08-04 09:42:00,80.0,70.6,30.08,NNE,25,9.2,9.2,73,0.00,FEW,,0.00,WeatherDisplay:10.37,2013-08-04 07:42:00,
2013-08-04 09:47:00,80.2,70.4,30.08,NE,53,9.2,9.2,72,0.00,FEW,,0.00,WeatherDisplay:10.37,2013-08-04 07:47:00,
2013-08-04 09:52:00,80.8,70.9,30.08,NNE,31,9.2,9.2,72,0.00,FEW,,0.00,WeatherDisplay:10.37,2013-08-04 07:52:00,
2013-08-04 09:57:00,81.1,70.0,30.08,East,79,13.0,13.0,69,0.00,FEW,,0.00,WeatherDisplay:10.37,2013-08-04 07:57:00,
2013-08-04 10:02:00,81.0,69.0,30.08,East,84,10.4,10.4,67,0.00,FEW,,0.00,WeatherDisplay:10.37,2013-08-04 08:02:00,
2013-08-04 10:07:00,81.2,69.6,30.08,ENE,77,12.0,12.0,68,0.00,FEW,,0.00,WeatherDisplay:10.37,2013-08-04 08:07:00,
2013-08-04 10:12:00,81.6,66.8,30.08,ESE,114,11.5,11.5,61,0.00,FEW,,0.00,WeatherDisplay:10.37,2013-08-04 08:12:00,
2013-08-04 10:17:00,81.9,68.1,30.08,ENE,73,11.5,11.5,63,0.00,FEW,,0.00,WeatherDisplay:10.37,2013-08-04 08:17:00,
2013-08-04 10:22:00,81.9,66.2,30.08,East,84,12.7,12.7,59,0.00,FEW,,0.00,WeatherDisplay:10.37,2013-08-04 08:22:00,
2013-08-04 10:27:00,82.4,67.1,30.09,East,89,10.0,10.0,60,0.00,FEW,,0.00,WeatherDisplay:10.37,2013-08-04 08:27:00,
2013-08-04 10:32:00,82.7,65.9,30.09,East,87,12.7,12.7,57,0.00,FEW,,0.00,WeatherDisplay:10.37,2013-08-04 08:32:00,
2013-08-04 10:37:00,82.7,67.4,30.09,ENE,73,12.7,12.7,60,0.00,FEW,,0.00,WeatherDisplay:10.37,2013-08-04 08:37:00,
2013-08-04 10:42:00,83.0,66.7,30.09,ESE,122,6.9,6.9,58,0.00,FEW,,0.00,WeatherDisplay:10.37,2013-08-04 08:42:00,
2013-08-04 10:47:00,83.3,66.0,30.09,ENE,77,9.2,9.2,56,0.00,FEW,,0.00,WeatherDisplay:10.37,2013-08-04 08:47:00,
2013-08-04 10:52:00,83.8,64.8,30.09,ESE,118,11.5,11.5,53,0.00,FEW,,0.00,WeatherDisplay:10.37,2013-08-04 08:52:00,
2013-08-04 10:57:00,84.1,64.0,30.09,NE,41,15.0,15.0,51,0.00,FEW,,0.00,WeatherDisplay:10.37,2013-08-04 08:57:00,
2013-08-04 11:02:00,84.7,63.4,30.10,East,83,10.4,10.4,49,0.00,FEW,,0.00,WeatherDisplay:10.37,2013-08-04 09:02:00,
2013-08-04 11:07:00,84.8,64.1,30.09,ESE,106,11.5,11.5,50,0.00,FEW,,0.00,WeatherDisplay:10.37,2013-08-04 09:07:00,
2013-08-04 11:12:00,84.6,62.7,30.10,East,89,11.5,11.5,48,0.00,FEW,,0.00,WeatherDisplay:10.37,2013-08-04 09:12:00,
2013-08-04 11:17:00,84.6,61.5,30.10,ENE,68,13.8,13.8,46,0.00,FEW,,0.00,WeatherDisplay:10.37,2013-08-04 09:17:00,
2013-08-04 11:22:00,84.5,61.4,30.10,East,79,12.7,12.7,46,0.00,FEW,,0.00,WeatherDisplay:10.37,2013-08-04 09:22:00,
2013-08-04 11:27:00,85.0,61.3,30.10,ENE,73,13.0,13.0,45,0.00,FEW,,0.00,WeatherDisplay:10.37,2013-08-04 09:27:00,
2013-08-04 11:32:00,85.3,61.6,30.10,ENE,74,11.5,11.5,45,0.00,FEW,,0.00,WeatherDisplay:10.37,2013-08-04 09:32:00,
2013-08-04 11:37:00,85.1,62.0,30.10,ENE,58,12.7,12.7,46,0.00,FEW,,0.00,WeatherDisplay:10.37,2013-08-04 09:37:00,
2013-08-04 11:42:00,84.9,62.4,30.10,East,84,11.0,11.0,47,0.00,FEW,,0.00,WeatherDisplay:10.37,2013-08-04 09:42:00,
2013-08-04 11:47:00,85.6,61.2,30.10,NNW,328,10.4,10.4,44,0.00,CLR,,0.00,WeatherDisplay:10.37,2013-08-04 09:47:00,
2013-08-04 11:52:00,86.1,61.6,30.10,East,81,11.5,11.5,44,0.00,CLR,,0.00,WeatherDisplay:10.37,2013-08-04 09:52:00,
2013-08-04 11:57:00,86.0,61.5,30.10,East,80,15.0,15.0,44,0.00,CLR,,0.00,WeatherDisplay:10.37,2013-08-04 09:57:00,
2013-08-04 12:02:00,86.2,61.7,30.10,East,88,10.4,10.4,44,0.00,CLR,,0.00,WeatherDisplay:10.37,2013-08-04 10:02:00,
2013-08-04 12:07:00,86.5,60.7,30.10,ENE,71,10.4,10.4,42,0.00,CLR,,0.00,WeatherDisplay:10.37,2013-08-04 10:07:00,
2013-08-04 12:12:00,86.9,61.0,30.10,ENE,67,9.2,9.2,42,0.00,CLR,,0.00,WeatherDisplay:10.37,2013-08-04 10:12:00,
2013-08-04 12:17:00,87.2,61.3,30.10,East,85,10.4,10.4,42,0.00,CLR,,0.00,WeatherDisplay:10.37,2013-08-04 10:17:00,
2013-08-04 12:22:00,87.0,61.8,30.10,ESE,108,11.5,11.5,43,0.00,CLR,,0.00,WeatherDisplay:10.37,2013-08-04 10:22:00,
2013-08-04 12:27:00,86.9,61.0,30.10,East,87,12.0,12.0,42,0.00,CLR,,0.00,WeatherDisplay:10.37,2013-08-04 10:27:00,
2013-08-04 12:32:00,86.0,60.9,30.10,ENE,73,12.7,12.7,43,0.00,CLR,,0.00,WeatherDisplay:10.37,2013-08-04 10:32:00,
2013-08-04 12:37:00,86.6,61.4,30.10,SE,137,9.2,9.2,43,0.00,CLR,,0.00,WeatherDisplay:10.37,2013-08-04 10:37:00,
2013-08-04 12:42:00,86.8,60.3,30.10,ESE,102,11.5,11.5,41,0.00,CLR,,0.00,WeatherDisplay:10.37,2013-08-04 10:42:00,
2013-08-04 12:47:00,86.8,61.0,30.10,North,9,11.5,11.5,42,0.00,CLR,,0.00,WeatherDisplay:10.37,2013-08-04 10:47:00,
2013-08-04 12:52:00,86.9,60.4,30.10,ENE,67,11.5,11.5,41,0.00,CLR,,0.00,WeatherDisplay:10.37,2013-08-04 10:52:00,
2013-08-04 12:57:00,87.0,60.5,30.10,SE,140,11.5,11.5,41,0.00,CLR,,0.00,WeatherDisplay:10.37,2013-08-04 10:57:00,
2013-08-04 13:02:00,87.8,59.8,30.10,ESE,121,10.4,10.4,39,0.00,CLR,,0.00,WeatherDisplay:10.37,2013-08-04 11:02:00,
2013-08-04 13:07:00,88.0,60.7,30.10,ESE,106,8.1,8.1,40,0.00,CLR,,0.00,WeatherDisplay:10.37,2013-08-04 11:07:00,
2013-08-04 13:12:00,87.8,60.5,30.10,East,93,11.0,11.0,40,0.00,CLR,,0.00,WeatherDisplay:10.37,2013-08-04 11:12:00,
2013-08-04 13:17:00,87.2,59.9,30.10,ESE,106,10.4,10.4,40,0.00,CLR,,0.00,WeatherDisplay:10.37,2013-08-04 11:17:00,
2013-08-04 13:22:00,86.9,59.7,30.10,SSE,149,11.5,11.5,40,0.00,CLR,,0.00,WeatherDisplay:10.37,2013-08-04 11:22:00,
2013-08-04 13:27:00,87.1,60.5,30.10,East,96,11.5,11.5,41,0.00,CLR,,0.00,WeatherDisplay:10.37,2013-08-04 11:27:00,
2013-08-04 13:32:00,87.4,60.8,30.10,ENE,73,9.2,9.2,41,0.00,CLR,,0.00,WeatherDisplay:10.37,2013-08-04 11:32:00,
2013-08-04 13:37:00,87.3,60.0,30.10,East,80,10.4,10.4,40,0.00,CLR,,0.00,WeatherDisplay:10.37,2013-08-04 11:37:00,
2013-08-04 13:42:00,87.4,60.1,30.10,SE,138,11.0,11.0,40,0.00,CLR,,0.00,WeatherDisplay:10.37,2013-08-04 11:42:00,
2013-08-04 13:47:00,87.6,59.6,30.10,East,83,13.8,13.8,39,0.00,CLR,,0.00,WeatherDisplay:10.37,2013-08-04 11:47:00,
2013-08-04 13:52:00,87.1,60.5,30.10,ESE,118,9.2,9.2,41,0.00,CLR,,0.00,WeatherDisplay:10.37,2013-08-04 11:52:00,
2013-08-04 13:57:00,86.7,60.2,30.10,SSE,149,9.2,9.2,41,0.00,CLR,,0.00,WeatherDisplay:10.37,2013-08-04 11:57:00,
2013-08-04 14:02:00,86.4,59.9,30.10,ENE,77,12.7,12.7,41,0.00,CLR,,0.00,WeatherDisplay:10.37,2013-08-04 12:02:00,
2013-08-04 14:07:00,86.8,61.0,30.09,ENE,66,11.5,11.5,42,0.00,CLR,,0.00,WeatherDisplay:10.37,2013-08-04 12:07:00,
2013-08-04 14:12:00,87.4,60.8,30.10,ENE,62,11.5,11.5,41,0.00,CLR,,0.00,WeatherDisplay:10.37,2013-08-04 12:12:00,
2013-08-04 14:17:00,87.1,61.2,30.09,ESE,120,11.5,11.5,42,0.00,CLR,,0.00,WeatherDisplay:10.37,2013-08-04 12:17:00,
2013-08-04 14:22:00,87.1,60.5,30.10,NE,48,9.2,9.2,41,0.00,CLR,,0.00,WeatherDisplay:10.37,2013-08-04 12:22:00,
2013-08-04 14:27:00,87.6,60.3,30.09,East,81,11.5,11.5,40,0.00,CLR,,0.00,WeatherDisplay:10.37,2013-08-04 12:27:00,
2013-08-04 14:32:00,86.9,59.0,30.09,East,80,12.7,12.7,39,0.00,CLR,,0.00,WeatherDisplay:10.37,2013-08-04 12:32:00,
2013-08-04 14:37:00,87.0,58.3,30.09,ESE,108,11.5,11.5,38,0.00,CLR,,0.00,WeatherDisplay:10.37,2013-08-04 12:37:00,
2013-08-04 14:42:00,87.1,59.1,30.09,East,81,10.4,10.4,39,0.00,CLR,,0.00,WeatherDisplay:10.37,2013-08-04 12:42:00,
2013-08-04 14:47:00,86.8,59.6,30.09,East,92,10.4,10.4,40,0.00,CLR,,0.00,WeatherDisplay:10.37,2013-08-04 12:47:00,
2013-08-04 14:52:00,86.8,59.6,30.09,ENE,58,12.7,12.7,40,0.00,CLR,,0.00,WeatherDisplay:10.37,2013-08-04 12:52:00,
2013-08-04 14:57:00,86.6,60.1,30.09,ENE,66,12.7,12.7,41,0.00,CLR,,0.00,WeatherDisplay:10.37,2013-08-04 12:57:00,
2013-08-04 15:02:00,86.4,59.2,30.09,ENE,71,12.7,12.7,40,0.00,CLR,,0.00,WeatherDisplay:10.37,2013-08-04 13:02:00,
2013-08-04 15:08:00,86.1,61.6,30.09,East,89,12.7,12.7,44,0.00,CLR,,0.00,WeatherDisplay:10.37,2013-08-04 13:08:00,
2013-08-04 15:13:00,86.3,61.8,30.09,East,82,9.2,9.2,44,0.00,CLR,,0.00,WeatherDisplay:10.37,2013-08-04 13:13:00,
2013-08-04 15:18:00,86.1,61.6,30.09,ESE,118,11.5,11.5,44,0.00,CLR,,0.00,WeatherDisplay:10.37,2013-08-04 13:18:00,
2013-08-04 15:23:00,86.6,63.4,30.09,NE,51,13.8,13.8,46,0.00,CLR,,0.00,WeatherDisplay:10.37,2013-08-04 13:23:00,
2013-08-04 15:28:00,86.6,63.4,30.09,East,98,11.5,11.5,46,0.00,CLR,,0.00,WeatherDisplay:10.37,2013-08-04 13:28:00,
2013-08-04 15:33:00,86.4,63.8,30.09,ESE,120,10.4,10.4,47,0.00,CLR,,0.00,WeatherDisplay:10.37,2013-08-04 13:33:00,
2013-08-04 15:38:00,86.0,63.4,30.09,East,91,16.1,16.1,47,0.00,CLR,,0.00,WeatherDisplay:10.37,2013-08-04 13:38:00,
2013-08-04 15:43:00,85.7,63.8,30.08,SE,145,13.0,13.0,48,0.00,CLR,,0.00,WeatherDisplay:10.37,2013-08-04 13:43:00,
2013-08-04 15:48:00,85.9,62.7,30.08,ESE,116,13.8,13.8,46,0.00,CLR,,0.00,WeatherDisplay:10.37,2013-08-04 13:48:00,
2013-08-04 15:53:00,85.6,63.1,30.08,ESE,103,12.7,12.7,47,0.00,CLR,,0.00,WeatherDisplay:10.37,2013-08-04 13:53:00,
2013-08-04 15:58:00,85.4,64.1,30.08,ESE,109,6.9,6.9,49,0.00,CLR,,0.00,WeatherDisplay:10.37,2013-08-04 13:58:00,
2013-08-04 16:03:00,86.0,63.4,30.08,East,84,11.5,11.5,47,0.00,CLR,,0.00,WeatherDisplay:10.37,2013-08-04 14:03:00,
2013-08-04 16:08:00,85.9,63.3,30.08,ESE,104,10.4,10.4,47,0.00,CLR,,0.00,WeatherDisplay:10.37,2013-08-04 14:08:00,
2013-08-04 16:13:00,86.0,64.0,30.08,SE,124,9.2,9.2,48,0.00,CLR,,0.00,WeatherDisplay:10.37,2013-08-04 14:13:00,
2013-08-04 16:18:00,86.2,64.8,30.08,East,91,11.5,11.5,49,0.00,CLR,,0.00,WeatherDisplay:10.37,2013-08-04 14:18:00,
2013-08-04 16:23:00,86.1,66.4,30.07,ESE,123,15.0,15.0,52,0.00,CLR,,0.00,WeatherDisplay:10.37,2013-08-04 14:23:00,
2013-08-04 16:28:00,86.1,67.0,30.08,ESE,104,16.1,16.1,53,0.00,CLR,,0.00,WeatherDisplay:10.37,2013-08-04 14:28:00,
2013-08-04 16:33:00,86.3,67.2,30.08,SE,129,9.2,9.2,53,0.00,CLR,,0.00,WeatherDisplay:10.37,2013-08-04 14:33:00,
2013-08-04 16:38:00,86.2,66.5,30.07,ENE,76,11.5,11.5,52,0.00,CLR,,0.00,WeatherDisplay:10.37,2013-08-04 14:38:00,
2013-08-04 16:43:00,85.9,66.8,30.07,SE,131,7.0,7.0,53,0.00,CLR,,0.00,WeatherDisplay:10.37,2013-08-04 14:43:00,
2013-08-04 16:48:00,85.8,67.2,30.07,ESE,112,11.5,11.5,54,0.00,CLR,,0.00,WeatherDisplay:10.37,2013-08-04 14:48:00,
2013-08-04 16:53:00,85.7,66.6,30.07,ESE,105,10.4,10.4,53,0.00,CLR,,0.00,WeatherDisplay:10.37,2013-08-04 14:53:00,
2013-08-04 16:58:00,86.2,67.1,30.07,ESE,106,7.0,7.0,53,0.00,CLR,,0.00,WeatherDisplay:10.37,2013-08-04 14:58:00,
2013-08-04 17:03:00,85.6,65.4,30.07,North,10,6.9,6.9,51,0.00,CLR,,0.00,WeatherDisplay:10.37,2013-08-04 15:03:00,
2013-08-04 17:08:00,85.7,65.5,30.07,SE,144,11.5,11.5,51,0.00,CLR,,0.00,WeatherDisplay:10.37,2013-08-04 15:08:00,
2013-08-04 17:13:00,85.7,66.6,30.07,ESE,103,12.7,12.7,53,0.00,CLR,,0.00,WeatherDisplay:10.37,2013-08-04 15:13:00,
2013-08-04 17:18:00,85.8,66.1,30.07,SSE,159,10.4,10.4,52,0.00,CLR,,0.00,WeatherDisplay:10.37,2013-08-04 15:18:00,
2013-08-04 17:23:00,85.6,66.0,30.07,East,99,10.4,10.4,52,0.00,CLR,,0.00,WeatherDisplay:10.37,2013-08-04 15:23:00,
2013-08-04 17:28:00,85.2,66.7,30.07,SSE,155,9.2,9.2,54,0.00,CLR,,0.00,WeatherDisplay:10.37,2013-08-04 15:28:00,
2013-08-04 17:33:00,85.0,66.5,30.07,SE,131,5.8,5.8,54,0.00,CLR,,0.00,WeatherDisplay:10.37,2013-08-04 15:33:00,
2013-08-04 17:38:00,84.9,67.5,30.07,SSE,161,8.1,8.1,56,0.00,CLR,,0.00,WeatherDisplay:10.37,2013-08-04 15:38:00,
2013-08-04 17:43:00,85.0,68.1,30.07,ENE,66,10.4,10.4,57,0.00,CLR,,0.00,WeatherDisplay:10.37,2013-08-04 15:43:00,
2013-08-04 17:48:00,84.5,68.6,30.07,ENE,74,8.1,8.1,59,0.00,CLR,,0.00,WeatherDisplay:10.37,2013-08-04 15:48:00,
2013-08-04 17:53:00,83.5,67.2,30.07,SE,143,11.5,11.5,58,0.00,CLR,,0.00,WeatherDisplay:10.37,2013-08-04 15:53:00,
2013-08-04 17:58:00,83.8,67.4,30.07,East,85,6.9,6.9,58,0.00,CLR,,0.00,WeatherDisplay:10.37,2013-08-04 15:58:00,
2013-08-04 18:03:00,83.8,66.9,30.06,ESE,112,11.5,11.5,57,0.00,CLR,,0.00,WeatherDisplay:10.37,2013-08-04 16:03:00,
2013-08-04 18:08:00,83.5,66.7,30.06,SSE,154,10.4,10.4,57,0.00,CLR,,0.00,WeatherDisplay:10.37,2013-08-04 16:08:00,
2013-08-04 18:13:00,83.4,64.5,30.06,ESE,105,11.5,11.5,53,0.00,CLR,,0.00,WeatherDisplay:10.37,2013-08-04 16:13:00,
2013-08-04 18:18:00,83.4,63.9,30.06,SE,136,10.4,10.4,52,0.00,CLR,,0.00,WeatherDisplay:10.37,2013-08-04 16:18:00,
2013-08-04 18:23:00,83.6,65.7,30.06,East,101,11.5,11.5,55,0.00,CLR,,0.00,WeatherDisplay:10.37,2013-08-04 16:23:00,
2013-08-04 18:28:00,83.5,66.2,30.06,ESE,120,6.9,6.9,56,0.00,CLR,,0.00,WeatherDisplay:10.37,2013-08-04 16:28:00,
2013-08-04 18:33:00,83.7,66.3,30.06,NE,35,8.1,8.1,56,0.00,CLR,,0.00,WeatherDisplay:10.37,2013-08-04 16:33:00,
2013-08-04 18:38:00,84.2,65.8,30.06,SE,132,4.0,4.0,54,0.00,CLR,,0.00,WeatherDisplay:10.37,2013-08-04 16:38:00,
2013-08-04 18:43:00,83.8,65.4,30.06,ESE,108,6.9,6.9,54,0.00,CLR,,0.00,WeatherDisplay:10.37,2013-08-04 16:43:00,
2013-08-04 18:48:00,83.9,64.4,30.06,ESE,113,6.9,6.9,52,0.00,CLR,,0.00,WeatherDisplay:10.37,2013-08-04 16:48:00,
2013-08-04 18:53:00,83.3,65.4,30.06,SE,135,10.4,10.4,55,0.00,CLR,,0.00,WeatherDisplay:10.37,2013-08-04 16:53:00,
2013-08-04 18:58:00,82.9,65.6,30.05,SSE,150,10.4,10.4,56,0.00,CLR,,0.00,WeatherDisplay:10.37,2013-08-04 16:58:00,
2013-08-04 19:03:00,82.5,65.7,30.05,SE,140,6.9,6.9,57,0.00,CLR,,0.00,WeatherDisplay:10.37,2013-08-04 17:03:00,
2013-08-04 19:08:00,82.3,67.5,30.05,East,83,9.2,9.2,61,0.00,CLR,,0.00,WeatherDisplay:10.37,2013-08-04 17:08:00,
2013-08-04 19:13:00,82.2,66.9,30.05,SE,134,4.6,4.6,60,0.00,CLR,,0.00,WeatherDisplay:10.37,2013-08-04 17:13:00,
2013-08-04 19:18:00,82.2,66.9,30.05,ESE,106,10.4,10.4,60,0.00,CLR,,0.00,WeatherDisplay:10.37,2013-08-04 17:18:00,
2013-08-04 19:23:00,81.8,67.0,30.05,East,85,11.5,11.5,61,0.00,CLR,,0.00,WeatherDisplay:10.37,2013-08-04 17:23:00,
2013-08-04 19:28:00,81.3,66.6,30.05,ESE,123,10.4,10.4,61,0.00,CLR,,0.00,WeatherDisplay:10.37,2013-08-04 17:28:00,
2013-08-04 19:33:00,81.2,67.4,30.05,ESE,109,6.9,6.9,63,0.00,CLR,,0.00,WeatherDisplay:10.37,2013-08-04 17:33:00,
2013-08-04 19:38:00,81.1,67.8,30.05,ESE,123,11.5,11.5,64,0.00,CLR,,0.00,WeatherDisplay:10.37,2013-08-04 17:38:00,
2013-08-04 19:43:00,80.8,67.9,30.05,SE,124,6.9,6.9,65,0.00,CLR,,0.00,WeatherDisplay:10.37,2013-08-04 17:43:00,
2013-08-04 19:48:00,80.7,67.4,30.05,SE,134,7.0,7.0,64,0.00,CLR,,0.00,WeatherDisplay:10.37,2013-08-04 17:48:00,
2013-08-04 19:53:00,80.6,67.3,30.05,East,89,9.2,9.2,64,0.00,CLR,,0.00,WeatherDisplay:10.37,2013-08-04 17:53:00,
2013-08-04 19:58:00,80.4,67.1,30.05,SE,124,8.1,8.1,64,0.00,CLR,,0.00,WeatherDisplay:10.37,2013-08-04 17:58:00,
2013-08-04 20:03:00,80.4,68.0,30.05,ESE,120,8.1,8.1,66,0.00,CLR,,0.00,WeatherDisplay:10.37,2013-08-04 18:03:00,
2013-08-04 20:08:00,80.4,68.0,30.05,East,87,6.9,6.9,66,0.00,CLR,,0.00,WeatherDisplay:10.37,2013-08-04 18:08:00,
2013-08-04 20:13:00,80.1,67.3,30.05,ESE,113,8.1,8.1,65,0.00,CLR,,0.00,WeatherDisplay:10.37,2013-08-04 18:13:00,
2013-08-04 20:18:00,79.9,68.0,30.05,SE,136,6.9,6.9,67,0.00,CLR,,0.00,WeatherDisplay:10.37,2013-08-04 18:18:00,
2013-08-04 20:23:00,79.9,68.4,30.05,ESE,123,8.0,8.0,68,0.00,CLR,,0.00,WeatherDisplay:10.37,2013-08-04 18:23:00,
2013-08-04 20:28:00,79.7,68.2,30.05,SE,125,6.9,6.9,68,0.00,CLR,,0.00,WeatherDisplay:10.37,2013-08-04 18:28:00,
2013-08-04 20:33:00,79.6,68.5,30.05,ESE,108,4.6,4.6,69,0.00,CLR,,0.00,WeatherDisplay:10.37,2013-08-04 18:33:00,
2013-08-04 20:38:00,79.5,68.4,30.05,SE,131,5.8,5.8,69,0.00,CLR,,0.00,WeatherDisplay:10.37,2013-08-04 18:38:00,
2013-08-04 20:43:00,79.5,68.9,30.05,ESE,111,3.5,3.5,70,0.00,CLR,,0.00,WeatherDisplay:10.37,2013-08-04 18:43:00,
2013-08-04 20:48:00,79.4,69.2,30.05,ESE,106,3.5,3.5,71,0.00,CLR,,0.00,WeatherDisplay:10.37,2013-08-04 18:48:00,
2013-08-04 20:53:00,79.2,69.0,30.05,SE,130,3.5,3.5,71,0.00,CLR,,0.00,WeatherDisplay:10.37,2013-08-04 18:53:00,
2013-08-04 20:58:00,79.1,69.3,30.05,ESE,114,3.5,3.5,72,0.00,CLR,,0.00,WeatherDisplay:10.37,2013-08-04 18:58:00,
2013-08-04 21:03:00,78.9,69.5,30.05,SE,125,3.5,3.5,73,0.00,CLR,,0.00,WeatherDisplay:10.37,2013-08-04 19:03:00,
2013-08-04 21:08:00,78.9,69.5,30.05,SE,126,2.3,2.3,73,0.00,CLR,,0.00,WeatherDisplay:10.37,2013-08-04 19:08:00,
2013-08-04 21:13:00,78.9,70.3,30.06,ESE,122,2.3,2.3,75,0.00,CLR,,0.00,WeatherDisplay:10.37,2013-08-04 19:13:00,
2013-08-04 21:18:00,78.7,70.5,30.05,ESE,120,2.3,2.3,76,0.00,CLR,,0.00,WeatherDisplay:10.37,2013-08-04 19:18:00,
2013-08-04 21:23:00,78.5,70.3,30.05,ESE,120,2.3,2.3,76,0.00,CLR,,0.00,WeatherDisplay:10.37,2013-08-04 19:23:00,
2013-08-04 21:28:00,78.3,70.1,30.05,ESE,117,3.5,3.5,76,0.00,CLR,,0.00,WeatherDisplay:10.37,2013-08-04 19:28:00,
2013-08-04 21:33:00,78.2,70.4,30.05,ESE,114,3.5,3.5,77,0.00,CLR,,0.00,WeatherDisplay:10.37,2013-08-04 19:33:00,
2013-08-04 21:38:00,78.1,70.7,30.06,ESE,115,3.5,3.5,78,0.00,CLR,,0.00,WeatherDisplay:10.37,2013-08-04 19:38:00,
2013-08-04 21:43:00,78.0,71.0,30.05,SE,125,3.5,3.5,79,0.00,CLR,,0.00,WeatherDisplay:10.37,2013-08-04 19:43:00,
2013-08-04 21:48:00,77.9,70.9,30.06,ESE,114,3.5,3.5,79,0.00,CLR,,0.00,WeatherDisplay:10.37,2013-08-04 19:48:00,
2013-08-04 21:53:00,77.7,71.0,30.06,ESE,115,3.5,3.5,80,0.00,CLR,,0.00,WeatherDisplay:10.37,2013-08-04 19:53:00,
2013-08-04 21:58:00,77.7,71.4,30.06,ESE,115,4.0,4.0,81,0.00,CLR,,0.00,WeatherDisplay:10.37,2013-08-04 19:58:00,
2013-08-04 22:03:00,77.6,71.3,30.06,ESE,118,3.5,3.5,81,0.00,CLR,,0.00,WeatherDisplay:10.37,2013-08-04 20:03:00,
2013-08-04 22:08:00,77.5,71.2,30.06,ESE,114,3.5,3.5,81,0.00,CLR,,0.00,WeatherDisplay:10.37,2013-08-04 20:08:00,
2013-08-04 22:13:00,77.4,71.5,30.06,ESE,115,4.0,4.0,82,0.00,CLR,,0.00,WeatherDisplay:10.37,2013-08-04 20:13:00,
2013-08-04 22:18:00,77.4,71.5,30.06,ESE,117,4.0,4.0,82,0.00,CLR,,0.00,WeatherDisplay:10.37,2013-08-04 20:18:00,
2013-08-04 22:23:00,77.4,71.5,30.06,ESE,115,3.5,3.5,82,0.00,CLR,,0.00,WeatherDisplay:10.37,2013-08-04 20:23:00,
2013-08-04 22:28:00,77.3,71.4,30.06,ESE,120,4.0,4.0,82,0.00,CLR,,0.00,WeatherDisplay:10.37,2013-08-04 20:28:00,
2013-08-04 22:33:00,77.3,71.4,30.06,ESE,119,2.3,2.3,82,0.00,CLR,,0.00,WeatherDisplay:10.37,2013-08-04 20:33:00,
2013-08-04 22:38:00,77.3,71.4,30.06,ESE,120,3.5,3.5,82,0.00,CLR,,0.00,WeatherDisplay:10.37,2013-08-04 20:38:00,
2013-08-04 22:43:00,77.2,71.3,30.06,ESE,120,2.0,2.0,82,0.00,CLR,,0.00,WeatherDisplay:10.37,2013-08-04 20:43:00,
2013-08-04 22:48:00,77.3,71.4,30.06,ESE,120,2.3,2.3,82,0.00,CLR,,0.00,WeatherDisplay:10.37,2013-08-04 20:48:00,
2013-08-04 22:53:00,77.2,70.9,30.06,ESE,119,3.5,3.5,81,0.00,CLR,,0.00,WeatherDisplay:10.37,2013-08-04 20:53:00,
2013-08-04 22:58:00,77.1,70.5,30.06,ESE,123,2.3,2.3,80,0.00,CLR,,0.00,WeatherDisplay:10.37,2013-08-04 20:58:00,
2013-08-04 23:03:00,77.3,71.0,30.06,ESE,123,3.5,3.5,81,0.00,CLR,,0.00,WeatherDisplay:10.37,2013-08-04 21:03:00,
2013-08-04 23:08:00,77.2,70.5,30.06,ESE,116,4.0,4.0,80,0.00,CLR,,0.00,WeatherDisplay:10.37,2013-08-04 21:08:00,
2013-08-04 23:13:00,77.4,71.5,30.06,ESE,118,4.0,4.0,82,0.00,CLR,,0.00,WeatherDisplay:10.37,2013-08-04 21:13:00,
2013-08-04 23:18:00,77.3,71.4,30.05,East,95,4.6,4.6,82,0.00,CLR,,0.00,WeatherDisplay:10.37,2013-08-04 21:18:00,
2013-08-04 23:23:00,77.0,71.4,30.06,East,87,4.6,4.6,83,0.00,CLR,,0.00,WeatherDisplay:10.37,2013-08-04 21:23:00,
2013-08-04 23:28:00,76.9,71.3,30.05,East,92,4.6,4.6,83,0.00,CLR,,0.00,WeatherDisplay:10.37,2013-08-04 21:28:00,
2013-08-04 23:33:00,76.5,70.2,30.05,ESE,117,5.8,5.8,81,0.00,CLR,,0.00,WeatherDisplay:10.37,2013-08-04 21:33:00,
2013-08-04 23:38:00,76.8,70.5,30.05,ESE,110,4.0,4.0,81,0.00,CLR,,0.00,WeatherDisplay:10.37,2013-08-04 21:38:00,
2013-08-04 23:43:00,76.8,70.2,30.05,ESE,105,4.6,4.6,80,0.00,CLR,,0.00,WeatherDisplay:10.37,2013-08-04 21:43:00,
2013-08-04 23:48:00,77.0,70.7,30.05,East,87,3.5,3.5,81,0.00,CLR,,0.00,WeatherDisplay:10.37,2013-08-04 21:48:00,
2013-08-04 23:49:00,77.1,70.8,30.05,East,93,5.0,5.0,81,0.00,CLR,,0.00,WeatherDisplay:10.37,2013-08-04 21:49:00,
2013-08-04 23:54:00,76.8,70.2,30.05,ESE,114,3.5,3.5,80,0.00,CLR,,0.00,WeatherDisplay:10.37,2013-08-04 21:54:00,
2013-08-04 23:59:00,76.8,69.0,30.05,ESE,107,6.9,6.9,77,0.00,CLR,,0.00,WeatherDisplay:10.37,2013-08-04 21:59:00,